Location: Gittelde
(51.7985°N, 10.1863°E)
Time: 20:04:48
(UTC+00:00)

Daily predictions for brighter satellites

Satellite Brightness Start Highest point End
(mag) Time Altitude Azimuth Time Altitude Azimuth Time Altitude Azimuth
Cosmos 1802 Rocket 4.1 20:20:26 10° N 20:26:42 71° ENE 20:33:03 10° SSE
Cosmos 968 Rocket 4.2 20:23:02 10° NNW 20:27:56 44° ENE 20:32:50 10° SE
CARTOSAT-1 3.6 20:24:44 10° SSE 20:29:02 81° ENE 20:33:23 10° NNW
Cosmos 1110 Rocket 4.1 20:26:21 10° S 20:31:26 62° ESE 20:36:36 10° NNE
Cosmos 1459 Rocket 4.0 20:26:29 10° N 20:32:34 89° W 20:38:39 10° S
Lacrosse 5 rocket 1.4 20:33:33 10° SSW 20:37:00 39° SE 20:40:23 10° ENE
Cosmos 2333 Rocket 2.8 20:32:36 10° S 20:37:54 39° ESE 20:43:11 10° NE
Cosmos 1975 Rocket 3.3 20:34:21 10° SSW 20:38:43 76° W 20:43:10 10° N
Cosmos 2219 Rocket 2.9 20:35:38 10° S 20:40:44 36° ESE 20:45:52 10° NE
Cosmos 1844 4.0 20:38:00 10° NW 20:43:31 61° WSW 20:49:00 10° SSE
Resurs 01 Rocket 3.4 20:39:47 10° SSW 20:43:35 28° W 20:47:25 10° NW
FALCON 9 DEB 3.1 20:42:40 10° SW 20:46:02 59° SSE 20:49:24 10° ENE
H-2A R/B 4.4 20:45:55 10° NNE 20:49:32 30° E 20:53:09 10° SSE
Cosmos 405 2.9 20:46:55 10° N 20:50:23 76° ENE 20:53:48 10° SSE
SL-14 R/B 3.4 20:51:20 10° S 20:55:18 60° E 20:59:17 10° NNE
ATLAS 3B R/B 2.8 20:49:02 10° SSW 20:55:18 50° ESE 21:01:48 10° NE
Cosmos 1953 3.6 20:51:39 10° NNW 20:55:28 39° W 20:59:16 10° SSW
NOSS 3-2 (C) 4.4 20:50:52 10° WSW 20:56:40 54° NNW 21:03:28 10° NE
Cosmos 2237 Rocket 3.8 20:57:11 10° SE 21:00:41 17° E 21:04:12 10° ENE
Cosmos 2360 Rocket 2.5 20:58:38 10° SW 21:04:17 75° WNW 21:09:58 10° NNE
Cosmos 2061 Rocket 4.2 21:00:02 10° NNW 21:06:31 80° W 21:12:54 10° S
Meteor 1-24 Rocket 4.0 21:01:29 10° SSE 21:06:35 48° E 21:11:53 10° NNE
Geosat 4.5 21:02:20 10° SSE 21:07:15 54° WSW 21:12:12 10° NW
Cosmos 1674 4.1 21:03:47 10° SW 21:07:15 38° WNW 21:10:46 10° N
SL-16 R/B 3.7 21:01:59 10° WSW 21:07:19 41° NW 21:12:42 10° NNE
Cosmos 2322 Rocket 3.3 21:02:22 10° SW 21:07:53 48° NW 21:13:26 10° NNE
Cosmos 1455 3.8 21:05:50 10° NNE 21:08:58 23° ENE 21:11:58 10° ESE
ERS-1 Rocket 3.3 21:04:38 10° S 21:09:38 63° WSW 21:14:40 10° NNW
Spot 2 Rocket 4.5 21:07:02 10° S 21:11:50 43° W 21:16:42 10° NNW
Cosmos 2123 Rocket 4.1 21:06:19 10° S 21:12:38 86° E 21:19:00 10° N
Cosmos 2233 Rocket 4.0 21:09:21 10° N 21:15:32 77° E 21:21:17 12° SSE
Cosmos 1331 Rocket 4.4 21:11:05 10° SSW 21:16:19 69° WNW 21:21:38 10° NNE
USA 215 4.2 21:12:27 10° ENE 21:17:42 25° SE 21:22:55 10° S
Cosmos 1300 2.9 21:15:05 10° NNW 21:18:53 66° W 21:22:22 12° S
CZ-4B DEB 4.4 21:17:43 13° S 21:20:24 68° WSW 21:23:34 10° NNW
ARIANE 5 R/B 3.9 21:16:20 10° SSW 21:20:28 36° W 21:24:38 10° NNW
SJ 16-02 3.8 21:18:28 10° N 21:20:55 14° NE 21:23:20 10° ENE
Cosmos 1606 Rocket 4.0 21:17:46 10° N 21:22:10 52° ENE 21:25:43 15° SSE
BREEZE-M DEB (TANK) 3.2 21:24:03 10° WSW 21:26:56 56° SSE 21:34:30 10° E
GEOS 3 Rocket 4.0 21:22:05 10° ESE 21:27:25 66° NE 21:32:42 10° NW
Cosmos 1503 Rocket 4.4 21:23:04 10° NNW 21:28:26 61° ENE 21:33:01 14° SE
FALCON 9 DEB 3.3 21:25:38 10° SW 21:28:34 38° SSE 21:31:31 10° E
Cosmos 2322 3.7 21:23:47 10° SSW 21:29:26 87° ESE 21:35:09 10° NNE
COSMOS 2428 2.8 21:24:19 10° SSW 21:29:58 65° ESE 21:35:41 10° NE
Cosmos 2278 Rocket 2.3 21:24:41 10° NNW 21:30:23 77° ENE 21:35:15 14° SE
Cosmos 1340 3.3 21:28:24 10° SSW 21:32:06 54° WNW 21:35:49 10° N
CENTAUR R/B 4.2 21:27:11 10° W 21:33:22 42° NNW 21:40:41 10° NE
Cosmos 1844 Rocket 4.4 21:29:03 10° NW 21:33:28 24° WSW 21:37:53 10° SSW
Cosmos 1302 Rocket 4.1 21:31:32 10° SSW 21:36:49 85° WNW 21:42:06 10° NNE
ATLAS CENTAUR R/B 4.2 21:37:08 15° SSE 21:40:32 24° ESE 21:48:52 10° ENE
ALOS 2 4.0 21:37:01 11° ESE 21:40:36 29° ENE 21:44:23 10° N
Terra 2.6 21:36:58 11° S 21:41:24 45° W 21:45:59 10° NNW
SPOT 5 4.2 21:39:43 10° SSW 21:44:18 33° W 21:48:42 10° NNW
FALCON 9 DEB 2.8 21:42:43 10° WSW 21:45:46 59° SSE 21:48:50 10° ENE
Cosmos 1184 Rocket 4.2 21:45:38 18° SE 21:47:04 24° E 21:49:45 10° NE
ATLAS CENTAUR R/B 3.3 21:46:00 10° WNW 21:49:19 21° WSW 21:52:25 11° SSW
Cosmos 1607 4.0 21:43:41 10° NW 21:50:10 87° SW 21:55:32 15° SE
FALCON 9 DEB 2.9 21:49:19 10° SW 21:52:23 55° SSE 21:55:27 10° ENE
USA 267 3.4 21:47:22 10° ESE 21:53:55 80° NNE 22:00:30 10° WNW
Cosmos 389 Rocket 2.7 21:51:54 10° NNW 21:55:16 60° W 21:57:31 19° S
Cosmos 1867 4.1 21:50:40 10° NW 21:55:57 48° WSW 21:59:50 18° S
FALCON 9 DEB 2.7 21:52:52 10° WSW 21:55:57 64° SSE 21:59:02 10° ENE
Cosmos 2228 3.4 21:54:01 10° NNW 21:58:22 61° W 22:01:42 17° S
Cosmos 1346 Rocket 2.8 21:55:09 15° SSW 21:58:25 89° WNW 22:02:28 10° NNE
Cosmos 1943 Rocket 3.4 21:55:33 10° NNW 22:00:36 35° NE 22:05:38 10° ESE
Meteor 2-10 Rocket 3.9 21:57:44 10° NNW 22:02:43 55° W 22:06:40 15° S
Cosmos 1464 Rocket 4.2 21:57:25 10° N 22:03:48 69° ENE 22:08:43 18° SSE
SL-4 R/B 2.7 22:04:16 11° SSW 22:07:41 29° SSE 22:11:00 10° E
Cosmos 1980 3.9 22:06:14 15° S 22:10:50 56° ESE 22:16:24 10° NE
Cosmos 1441 Rocket 4.1 22:09:16 21° SE 22:11:13 35° E 22:14:43 10° NNE
Cosmos 1777 Rocket 4.3 22:10:14 10° NNW 22:15:31 64° ENE 22:19:35 17° SE
Lacrosse 5 rocket 1.8 22:12:29 10° W 22:16:01 52° NNW 22:19:33 10° ENE
Meteor 1-4 Rocket 3.4 22:15:19 10° N 22:18:36 37° ENE 22:20:33 20° SE
Cosmos 1703 3.7 22:19:03 23° SSE 22:21:11 47° E 22:25:00 10° NNE
Cosmos 1992 Rocket 4.1 22:16:47 10° SSW 22:21:55 82° WNW 22:27:12 10° NNE
Cosmos 2333 Rocket 3.3 22:16:35 10° SW 22:22:07 47° NW 22:27:40 10° NNE
FALCON 9 DEB 3.4 22:19:30 10° W 22:22:56 71° N 22:26:20 10° E
Cosmos 2219 Rocket 3.1 22:19:03 10° SW 22:24:34 50° NW 22:30:06 10° NNE
Meteor 2-1 Rocket 4.2 22:19:24 10° NNW 22:24:58 89° WSW 22:28:53 20° S
Cosmos 1354 Rocket 4.3 22:20:58 10° NNW 22:26:14 61° WSW 22:29:48 20° S
Iridium 2 4.1 22:30:01 19° SSW 22:32:32 55° W 22:36:14 10° N
Okean 1-7 Rocket 3.6 22:32:54 23° S 22:35:40 70° E 22:40:05 10° NNE
Spot 4 4.1 22:33:32 21° S 22:36:40 59° WSW 22:41:24 10° NNW
Cosmos 2034 Rocket 4.0 22:33:02 10° N 22:39:17 86° E 22:43:40 20° S
Cosmos 1812 Rocket 4.2 22:35:15 10° N 22:39:28 46° ENE 22:42:16 19° SE
Cosmos 1328 4.2 22:38:11 25° SSE 22:40:08 48° E 22:43:54 10° NNE
SL-16 R/B 3.0 22:38:06 20° SSE 22:41:13 35° ESE 22:46:20 10° NE
Cosmos 2058 Rocket 3.5 22:38:17 10° NNW 22:42:39 54° W 22:45:21 21° SSW
Cosmos 2237 Rocket 2.2 22:38:57 14° SSW 22:43:56 87° ESE 22:49:37 10° NNE
Cosmos 1455 3.3 22:41:09 10° NNW 22:44:39 35° W 22:46:51 19° SSW
ATLAS 3B R/B 3.4 22:39:33 10° WSW 22:46:01 54° NW 22:52:47 10° NE
NOSS 3-1 (C) 4.3 22:43:49 20° SSE 22:46:22 29° ESE 22:51:34 10° ENE
Cosmos 2369 Rocket 3.2 22:45:26 10° NNW 22:50:55 43° NE 22:56:20 10° ESE
NOSS 0 Rocket 4.2 22:47:47 10° SW 22:54:00 71° NW 23:00:16 10° NNE
MTI 4.1 22:51:52 10° NNE 22:54:51 48° E 22:55:52 32° SSE
SJ 16-02 1.4 22:55:52 10° NNW 23:00:17 77° ENE 23:03:04 22° SSE
USA 215 3.2 22:54:57 10° ENE 23:01:30 70° SE 23:08:02 10° SW
GP-B 3.5 22:57:26 10° N 23:01:50 55° E 23:04:24 23° SSE
FALCON 9 DEB 3.0 23:01:02 10° W 23:04:11 77° N 23:07:19 10° ENE
OPS 6432 4.1 23:06:50 10° NW 23:09:48 76° SW 23:11:27 27° SE
Tsikada Rocket 4.0 23:06:39 21° S 23:10:57 79° E 23:17:08 10° NNE
Cosmos 2278 Rocket 3.8 23:09:39 10° NW 23:13:52 22° WSW 23:17:05 14° SW
COSMOS 2428 4.4 23:09:35 10° WSW 23:14:42 32° NW 23:19:50 10° NNE
Cosmos 2297 3.7 23:10:10 10° NW 23:15:47 70° WSW 23:19:34 21° SSE
Aureole 3 3.4 23:12:16 10° N 23:15:59 76° E 23:18:38 24° SSE
ALOS 2 3.4 23:14:25 22° SSW 23:16:49 40° W 23:20:59 10° NNW
FALCON 9 DEB 3.2 23:18:17 10° W 23:21:23 68° N 23:24:29 10° E
USA 32 4.1 23:17:36 10° N 23:22:51 72° W 23:26:11 23° S
SL-16 R/B 4.3 23:18:16 10° ESE 23:23:19 27° NE 23:28:21 10° N
FALCON 9 DEB 3.1 23:24:57 10° W 23:28:04 69° N 23:31:11 10° E
Meteor 1-27 4.2 23:25:28 10° NNW 23:31:04 87° ENE 23:34:56 21° SSE
FALCON 9 DEB 3.2 23:28:30 10° W 23:31:37 67° N 23:34:44 10° E
Meteor 1-11 4.2 23:28:06 22° S 23:31:51 88° ESE 23:37:29 10° NNE
SAR-Lupe-2 3.8 23:29:08 10° N 23:32:42 64° WNW 23:34:38 25° SSW
Lacrosse 4 Rocket 3.7 23:31:53 10° NNW 23:35:17 24° NE 23:38:38 10° E
Cosmos 1626 Rocket 4.2 23:32:57 20° SW 23:35:51 51° WNW 23:40:12 10° N
NOSS 2-3 (D) 4.2 23:35:03 25° S 23:36:59 41° ESE 23:41:32 10° NE
USA 267 3.5 23:32:01 15° SSE 23:37:15 48° SW 23:43:33 10° WNW
Thor Agena Rocket 3.6 23:32:49 10° NNE 23:38:08 87° ESE 23:41:35 22° SSW
Cosmos 1763 Rocket 4.4 23:35:43 19° SSE 23:38:38 35° ESE 23:43:17 10° NE
Resurs 1-4 Rocket 4.2 23:35:34 10° NE 23:38:59 17° E 23:42:23 10° SE
BREEZE-M DEB (TANK) 3.4 23:37:14 10° W 23:41:18 75° S 23:54:58 10° E
Cosmos 1869 3.4 23:38:58 10° N 23:43:06 80° E 23:45:30 24° SSE
Cosmos 1602 Rocket 4.0 23:40:47 21° SSW 23:43:36 58° WNW 23:48:03 10° N
Cosmos 1437 Rocket 4.0 23:40:18 10° N 23:43:57 36° ENE 23:46:57 13° SE
Cosmos 1943 Rocket 2.4 23:39:14 10° NW 23:44:36 53° WSW 23:48:01 22° S
SL-4 R/B 1.6 23:43:03 10° WSW 23:46:57 75° SSE 23:50:35 10° E
Cosmos 1892 2.9 23:46:05 26° S 23:48:07 63° E 23:51:58 10° NNE
Cosmos 1758 Rocket 3.6 23:48:38 24° SSW 23:51:17 77° WNW 23:55:43 10° N
Meteor 1-4 Rocket 4.4 23:50:54 10° NW 23:53:19 18° W 23:54:41 15° WSW
NOSS 2-3 (C) 3.8 23:51:20 24° SSW 23:53:43 58° SE 23:58:37 10° NE
Cosmos-2242 3.4 23:51:15 10° NNW 23:55:34 55° W 23:58:02 24° SSW
Lacrosse 5 rocket 2.8 23:52:15 10° WNW 23:55:35 35° N 23:58:56 10° ENE
